Time,TemperatureF,DewpointF,PressureIn,WindDirection,WindDirectionDegrees,WindSpeedMPH,WindSpeedGustMPH,Humidity,HourlyPrecipIn,Conditions,Clouds,dailyrainin,SolarRadiationWatts/m^2,SoftwareType,DateUTC
2013-09-11 00:01:00,59.7,58.0,29.95,NNE,29,0.0,0.0,94,0.01,-RA,-RA,0.00,0.0,WeatherDisplay:10.37,2013-09-11 06:01:00,
2013-09-11 00:06:00,59.7,58.0,29.94,NNE,29,1.0,1.0,94,0.01,-RA,-RA,0.00,0.0,WeatherDisplay:10.37,2013-09-11 06:06:00,
2013-09-11 00:11:00,59.7,58.0,29.94,NNE,29,0.9,1.0,94,0.01,-RA,-RA,0.00,0.0,WeatherDisplay:10.37,2013-09-11 06:11:00,
2013-09-11 00:16:00,59.6,57.9,29.94,NNE,29,0.0,1.1,94,0.02,-RA,-RA,0.01,0.0,WeatherDisplay:10.37,2013-09-11 06:16:00,
2013-09-11 00:21:00,59.6,57.9,29.94,NNE,29,0.0,0.0,94,0.02,-RA,-RA,0.01,0.0,WeatherDisplay:10.37,2013-09-11 06:21:00,
2013-09-11 00:26:00,59.5,57.8,29.94,NNE,29,0.0,0.0,94,0.02,-RA,-RA,0.01,0.0,WeatherDisplay:10.37,2013-09-11 06:26:00,
2013-09-11 00:31:00,59.5,57.8,29.94,NNE,29,0.0,1.1,94,0.02,-RA,-RA,0.02,0.0,WeatherDisplay:10.37,2013-09-11 06:31:00,
2013-09-11 00:36:00,59.5,57.8,29.94,NNE,29,0.0,0.0,94,0.02,-RA,-RA,0.02,0.0,WeatherDisplay:10.37,2013-09-11 06:36:00,
2013-09-11 00:41:00,59.5,57.8,29.94,NNE,29,0.0,0.0,94,0.02,-RA,-RA,0.02,0.0,WeatherDisplay:10.37,2013-09-11 06:41:00,
2013-09-11 00:46:00,59.5,57.8,29.94,NNE,29,0.0,0.0,94,0.02,-RA,-RA,0.02,0.0,WeatherDisplay:10.37,2013-09-11 06:46:00,
2013-09-11 00:51:00,59.5,57.8,29.94,NNE,29,0.2,1.0,94,0.02,-RA,-RA,0.02,0.0,WeatherDisplay:10.37,2013-09-11 06:51:00,
2013-09-11 00:56:00,59.5,57.8,29.94,NNE,29,0.9,1.1,94,0.02,-RA,-RA,0.02,0.0,WeatherDisplay:10.37,2013-09-11 06:56:00,
2013-09-11 01:01:00,59.5,57.8,29.93,NNE,29,1.1,1.1,94,0.02,-RA,-RA,0.02,0.0,WeatherDisplay:10.37,2013-09-11 07:01:00,
2013-09-11 01:06:00,59.6,57.9,29.92,NNE,29,0.5,1.0,94,0.02,-RA,-RA,0.02,0.0,WeatherDisplay:10.37,2013-09-11 07:06:00,
2013-09-11 01:11:00,59.5,57.8,29.92,NNE,29,0.0,0.0,94,0.02,-RA,-RA,0.02,0.0,WeatherDisplay:10.37,2013-09-11 07:11:00,
2013-09-11 01:16:00,59.5,57.8,29.92,NNE,29,0.0,0.0,94,0.01,-RA,-RA,0.02,0.0,WeatherDisplay:10.37,2013-09-11 07:16:00,
2013-09-11 01:21:00,59.4,57.7,29.92,NNE,29,0.0,0.0,94,0.01,OVC,OVC,0.02,0.0,WeatherDisplay:10.37,2013-09-11 07:21:00,
2013-09-11 01:26:00,59.4,57.7,29.92,NNE,29,0.0,0.0,94,0.01,OVC,OVC,0.02,0.0,WeatherDisplay:10.37,2013-09-11 07:26:00,
2013-09-11 01:31:00,59.5,57.8,29.92,NNE,29,0.0,0.0,94,0.00,OVC,OVC,0.02,0.0,WeatherDisplay:10.37,2013-09-11 07:31:00,
2013-09-11 01:36:00,59.5,57.8,29.92,NNE,29,0.0,0.0,94,0.00,OVC,OVC,0.02,0.0,WeatherDisplay:10.37,2013-09-11 07:36:00,
2013-09-11 01:41:00,59.5,58.1,29.92,NNE,29,0.1,2.3,95,0.00,OVC,OVC,0.02,0.0,WeatherDisplay:10.37,2013-09-11 07:41:00,
2013-09-11 01:46:00,59.6,58.2,29.92,NNE,29,0.0,2.3,95,0.00,OVC,OVC,0.02,0.0,WeatherDisplay:10.37,2013-09-11 07:46:00,
2013-09-11 01:51:00,59.7,58.3,29.92,NNE,29,1.0,2.3,95,0.02,RA,RA,0.04,0.0,WeatherDisplay:10.37,2013-09-11 07:51:00,
2013-09-11 01:56:00,59.7,58.3,29.92,NNE,29,0.7,1.1,95,0.05,RA,RA,0.08,0.0,WeatherDisplay:10.37,2013-09-11 07:56:00,
2013-09-11 02:01:00,59.8,58.4,29.92,NNE,29,0.0,0.0,95,0.06,RA,RA,0.08,0.0,WeatherDisplay:10.37,2013-09-11 08:01:00,
2013-09-11 02:06:00,59.8,58.1,29.93,NNE,29,0.0,1.1,94,0.07,RA,RA,0.09,0.0,WeatherDisplay:10.37,2013-09-11 08:06:00,
2013-09-11 02:11:00,59.8,58.4,29.93,NNE,29,0.0,0.0,95,0.07,RA,RA,0.09,0.0,WeatherDisplay:10.37,2013-09-11 08:11:00,
2013-09-11 02:16:00,59.8,58.4,29.92,NNE,29,0.0,1.1,95,0.07,OVC,OVC,0.09,0.0,WeatherDisplay:10.37,2013-09-11 08:16:00,
2013-09-11 02:21:00,59.8,58.4,29.92,NNE,29,0.0,2.3,95,0.07,OVC,OVC,0.09,0.0,WeatherDisplay:10.37,2013-09-11 08:21:00,
2013-09-11 02:26:00,59.9,58.5,29.93,ENE,61,0.1,2.3,95,0.07,OVC,OVC,0.09,0.0,WeatherDisplay:10.37,2013-09-11 08:26:00,
2013-09-11 02:31:00,60.0,58.6,29.92,East,87,0.0,2.3,95,0.07,OVC,OVC,0.09,0.0,WeatherDisplay:10.37,2013-09-11 08:31:00,
2013-09-11 02:36:00,59.9,58.5,29.92,East,87,0.0,0.0,95,0.08,RA,RA,0.10,0.0,WeatherDisplay:10.37,2013-09-11 08:36:00,
2013-09-11 02:41:00,59.9,58.5,29.92,East,87,0.0,0.0,95,0.08,RA,RA,0.10,0.0,WeatherDisplay:10.37,2013-09-11 08:41:00,
2013-09-11 02:46:00,59.9,58.5,29.92,East,87,0.0,0.0,95,0.08,OVC,OVC,0.10,0.0,WeatherDisplay:10.37,2013-09-11 08:46:00,
2013-09-11 02:51:00,59.9,58.5,29.92,East,87,0.0,0.0,95,0.06,OVC,OVC,0.10,0.0,WeatherDisplay:10.37,2013-09-11 08:51:00,
2013-09-11 02:56:00,59.9,58.5,29.92,East,87,0.0,0.0,95,0.03,OVC,OVC,0.10,0.0,WeatherDisplay:10.37,2013-09-11 08:56:00,
2013-09-11 03:01:00,59.9,58.5,29.92,East,87,0.0,0.0,95,0.02,OVC,OVC,0.10,0.0,WeatherDisplay:10.37,2013-09-11 09:01:00,
2013-09-11 03:06:00,59.9,58.5,29.93,East,87,0.0,0.0,95,0.01,OVC,OVC,0.10,0.0,WeatherDisplay:10.37,2013-09-11 09:06:00,
2013-09-11 03:11:00,59.9,58.5,29.93,East,87,0.0,0.0,95,0.01,OVC,OVC,0.10,0.0,WeatherDisplay:10.37,2013-09-11 09:11:00,
2013-09-11 03:16:00,59.9,58.5,29.93,East,87,0.0,0.0,95,0.01,OVC,OVC,0.10,0.0,WeatherDisplay:10.37,2013-09-11 09:16:00,
2013-09-11 03:21:00,60.0,58.6,29.93,East,87,0.0,0.0,95,0.01,OVC,OVC,0.10,0.0,WeatherDisplay:10.37,2013-09-11 09:21:00,
2013-09-11 03:26:00,60.0,58.6,29.92,East,87,0.0,0.0,95,0.01,OVC,OVC,0.10,0.0,WeatherDisplay:10.37,2013-09-11 09:26:00,
2013-09-11 03:31:00,60.0,58.6,29.92,East,87,0.0,0.0,95,0.02,RA,RA,0.11,0.0,WeatherDisplay:10.37,2013-09-11 09:31:00,
2013-09-11 03:36:00,60.0,58.6,29.92,East,87,0.0,0.0,95,0.01,RA,RA,0.11,0.0,WeatherDisplay:10.37,2013-09-11 09:36:00,
2013-09-11 03:41:00,60.1,58.7,29.92,East,87,0.0,0.0,95,0.01,OVC,OVC,0.11,0.0,WeatherDisplay:10.37,2013-09-11 09:41:00,
2013-09-11 03:46:00,60.1,58.7,29.92,East,87,0.0,0.0,95,0.01,OVC,OVC,0.11,0.0,WeatherDisplay:10.37,2013-09-11 09:46:00,
2013-09-11 03:51:00,60.1,58.7,29.92,East,87,0.0,0.0,95,0.01,OVC,OVC,0.11,0.0,WeatherDisplay:10.37,2013-09-11 09:51:00,
2013-09-11 03:56:00,60.2,58.8,29.92,East,87,0.0,0.0,95,0.01,OVC,OVC,0.11,0.0,WeatherDisplay:10.37,2013-09-11 09:56:00,
2013-09-11 04:01:00,60.2,58.8,29.92,East,87,0.0,0.0,95,0.01,OVC,OVC,0.11,0.0,WeatherDisplay:10.37,2013-09-11 10:01:00,
2013-09-11 04:06:00,60.2,58.8,29.92,East,87,0.0,0.0,95,0.01,OVC,OVC,0.11,0.0,WeatherDisplay:10.37,2013-09-11 10:06:00,
2013-09-11 04:11:00,60.3,58.9,29.92,East,87,0.0,0.0,95,0.01,OVC,OVC,0.11,0.0,WeatherDisplay:10.37,2013-09-11 10:11:00,
2013-09-11 04:16:00,60.3,58.9,29.92,East,87,0.0,0.0,95,0.01,OVC,OVC,0.11,0.0,WeatherDisplay:10.37,2013-09-11 10:16:00,
2013-09-11 04:21:00,60.3,58.9,29.92,East,87,0.0,0.0,95,0.01,OVC,OVC,0.11,0.0,WeatherDisplay:10.37,2013-09-11 10:21:00,
2013-09-11 04:26:00,60.3,58.9,29.92,East,87,0.0,0.0,95,0.01,OVC,OVC,0.11,0.0,WeatherDisplay:10.37,2013-09-11 10:26:00,
2013-09-11 04:31:00,60.3,58.9,29.92,East,87,0.0,0.0,95,0.00,OVC,OVC,0.11,0.0,WeatherDisplay:10.37,2013-09-11 10:31:00,
2013-09-11 04:36:00,60.3,58.9,29.92,East,87,0.0,0.0,95,0.00,OVC,OVC,0.11,0.0,WeatherDisplay:10.37,2013-09-11 10:36:00,
2013-09-11 04:41:00,60.3,58.9,29.92,East,87,0.0,0.0,95,0.00,OVC,OVC,0.11,0.0,WeatherDisplay:10.37,2013-09-11 10:41:00,
2013-09-11 04:46:00,60.3,58.9,29.92,East,87,0.0,0.0,95,0.00,OVC,OVC,0.11,0.0,WeatherDisplay:10.37,2013-09-11 10:46:00,
2013-09-11 04:51:00,60.4,59.0,29.92,East,87,0.0,0.0,95,0.00,OVC,OVC,0.11,0.0,WeatherDisplay:10.37,2013-09-11 10:51:00,
2013-09-11 04:56:00,60.4,59.0,29.92,East,87,0.5,3.4,95,0.00,OVC,OVC,0.11,0.0,WeatherDisplay:10.37,2013-09-11 10:56:00,
2013-09-11 05:01:00,60.4,59.0,29.92,East,87,0.6,2.0,95,0.00,OVC,OVC,0.11,0.0,WeatherDisplay:10.37,2013-09-11 11:01:00,
2013-09-11 05:06:00,60.4,59.0,29.93,East,87,0.0,0.0,95,0.00,OVC,OVC,0.11,0.0,WeatherDisplay:10.37,2013-09-11 11:06:00,
2013-09-11 05:11:00,60.4,59.0,29.93,East,87,0.0,0.0,95,0.00,OVC,OVC,0.11,0.0,WeatherDisplay:10.37,2013-09-11 11:11:00,
2013-09-11 05:16:00,60.4,59.0,29.94,East,87,0.0,1.1,95,0.00,OVC,OVC,0.11,0.0,WeatherDisplay:10.37,2013-09-11 11:16:00,
2013-09-11 05:21:00,60.4,59.0,29.94,East,87,0.0,1.1,95,0.00,OVC,OVC,0.11,0.0,WeatherDisplay:10.37,2013-09-11 11:21:00,
2013-09-11 05:26:00,60.4,59.0,29.94,East,87,0.0,0.0,95,0.00,OVC,OVC,0.11,0.0,WeatherDisplay:10.37,2013-09-11 11:26:00,
2013-09-11 05:31:00,60.4,59.0,29.94,East,87,0.0,0.0,95,0.00,OVC,OVC,0.11,0.0,WeatherDisplay:10.37,2013-09-11 11:31:00,
2013-09-11 05:36:00,60.4,59.0,29.94,East,87,0.0,1.1,95,0.00,OVC,OVC,0.11,0.0,WeatherDisplay:10.37,2013-09-11 11:36:00,
2013-09-11 05:41:00,60.3,58.9,29.94,East,87,0.0,2.3,95,0.00,OVC,OVC,0.11,0.0,WeatherDisplay:10.37,2013-09-11 11:41:00,
2013-09-11 05:46:00,60.3,58.9,29.94,East,87,0.0,1.1,95,0.00,OVC,OVC,0.11,0.0,WeatherDisplay:10.37,2013-09-11 11:46:00,
2013-09-11 05:51:00,60.3,58.9,29.94,East,87,0.2,1.1,95,0.00,OVC,OVC,0.11,0.0,WeatherDisplay:10.37,2013-09-11 11:51:00,
2013-09-11 05:56:00,60.3,58.9,29.94,East,87,0.3,1.0,95,0.00,OVC,OVC,0.11,0.0,WeatherDisplay:10.37,2013-09-11 11:56:00,
2013-09-11 06:01:00,60.3,58.9,29.94,East,87,0.0,0.0,95,0.00,OVC,OVC,0.11,0.0,WeatherDisplay:10.37,2013-09-11 12:01:00,
2013-09-11 06:06:00,60.3,58.9,29.96,East,87,0.0,1.1,95,0.00,OVC,OVC,0.11,0.0,WeatherDisplay:10.37,2013-09-11 12:06:00,
2013-09-11 06:11:00,60.3,58.9,29.96,East,87,0.4,1.1,95,0.00,OVC,OVC,0.11,0.0,WeatherDisplay:10.37,2013-09-11 12:11:00,
2013-09-11 06:16:00,60.3,58.9,29.96,East,87,2.6,3.0,95,0.00,OVC,OVC,0.11,0.0,WeatherDisplay:10.37,2013-09-11 12:16:00,
2013-09-11 06:21:00,60.2,58.8,29.96,East,87,0.7,3.4,95,0.00,OVC,OVC,0.11,0.0,WeatherDisplay:10.37,2013-09-11 12:21:00,
2013-09-11 06:27:00,60.2,58.8,29.96,East,87,1.7,3.4,95,0.00,OVC,OVC,0.11,0.0,WeatherDisplay:10.37,2013-09-11 12:27:00,
2013-09-11 06:32:00,60.2,58.8,29.96,East,87,0.0,0.0,95,0.00,OVC,OVC,0.11,0.0,WeatherDisplay:10.37,2013-09-11 12:32:00,
2013-09-11 06:37:00,60.2,58.8,29.96,East,87,0.0,0.0,95,0.00,OVC,OVC,0.11,0.0,WeatherDisplay:10.37,2013-09-11 12:37:00,
2013-09-11 06:42:00,60.2,58.8,29.97,East,87,1.3,3.0,95,0.00,OVC,OVC,0.11,0.0,WeatherDisplay:10.37,2013-09-11 12:42:00,
2013-09-11 06:47:00,60.1,58.7,29.97,East,86,1.3,2.3,95,0.00,OVC,OVC,0.11,0.0,WeatherDisplay:10.37,2013-09-11 12:47:00,
2013-09-11 06:52:00,60.0,58.6,29.97,East,86,0.7,2.3,95,0.00,OVC,OVC,0.11,0.0,WeatherDisplay:10.37,2013-09-11 12:52:00,
2013-09-11 06:57:00,60.0,58.6,29.97,East,86,1.8,2.3,95,0.00,OVC,OVC,0.11,0.0,WeatherDisplay:10.37,2013-09-11 12:57:00,
2013-09-11 07:02:00,59.9,58.5,29.97,East,86,0.0,2.3,95,0.00,OVC,OVC,0.11,0.0,WeatherDisplay:10.37,2013-09-11 13:02:00,
2013-09-11 07:07:00,59.9,58.5,29.97,East,86,1.2,2.3,95,0.00,OVC,OVC,0.11,0.0,WeatherDisplay:10.37,2013-09-11 13:07:00,
2013-09-11 07:12:00,59.9,58.5,29.97,East,86,0.6,2.3,95,0.00,OVC,OVC,0.11,0.0,WeatherDisplay:10.37,2013-09-11 13:12:00,
2013-09-11 07:17:00,59.9,58.5,29.97,East,86,0.9,0.0,95,0.00,OVC,OVC,0.11,0.0,WeatherDisplay:10.37,2013-09-11 13:17:00,
2013-09-11 07:22:00,59.9,58.5,29.97,East,86,0.3,1.1,95,0.00,OVC,OVC,0.11,5.0,WeatherDisplay:10.37,2013-09-11 13:22:00,
2013-09-11 07:27:00,59.9,58.5,29.97,East,86,0.1,2.3,95,0.00,OVC,OVC,0.11,5.0,WeatherDisplay:10.37,2013-09-11 13:27:00,
2013-09-11 07:32:00,59.8,58.4,29.97,East,86,0.7,3.4,95,0.00,OVC,OVC,0.11,5.0,WeatherDisplay:10.37,2013-09-11 13:32:00,
2013-09-11 07:37:00,59.8,58.7,29.97,East,86,0.0,0.0,96,0.00,OVC,OVC,0.11,5.0,WeatherDisplay:10.37,2013-09-11 13:37:00,
2013-09-11 07:42:00,59.9,58.8,29.98,East,86,1.4,1.4,96,0.00,OVC,OVC,0.11,7.0,WeatherDisplay:10.37,2013-09-11 13:42:00,
2013-09-11 07:47:00,59.9,58.8,29.98,East,86,0.0,2.3,96,0.00,OVC,OVC,0.12,7.0,WeatherDisplay:10.37,2013-09-11 13:47:00,
2013-09-11 07:52:00,60.0,58.9,29.98,East,86,1.3,3.4,96,0.01,RA,RA,0.12,12.0,WeatherDisplay:10.37,2013-09-11 13:52:00,
2013-09-11 07:57:00,59.9,58.8,29.98,East,86,0.0,0.0,96,0.01,RA,RA,0.12,18.0,WeatherDisplay:10.37,2013-09-11 13:57:00,
2013-09-11 08:02:00,60.0,58.9,29.98,East,86,0.4,2.0,96,0.01,OVC,OVC,0.12,33.0,WeatherDisplay:10.37,2013-09-11 14:02:00,
2013-09-11 08:07:00,60.0,58.9,29.98,East,86,0.1,2.3,96,0.01,OVC,OVC,0.12,49.0,WeatherDisplay:10.37,2013-09-11 14:07:00,
2013-09-11 08:12:00,60.0,58.9,29.98,East,86,1.7,3.4,96,0.01,OVC,OVC,0.12,69.0,WeatherDisplay:10.37,2013-09-11 14:12:00,
2013-09-11 08:17:00,60.1,59.0,29.98,East,86,0.6,3.4,96,0.01,OVC,OVC,0.12,97.0,WeatherDisplay:10.37,2013-09-11 14:17:00,
2013-09-11 08:22:00,60.2,59.1,29.98,East,86,0.1,1.0,96,0.01,OVC,OVC,0.12,79.0,WeatherDisplay:10.37,2013-09-11 14:22:00,
2013-09-11 08:27:00,60.3,59.2,29.98,East,86,0.4,1.1,96,0.01,OVC,OVC,0.12,58.0,WeatherDisplay:10.37,2013-09-11 14:27:00,
2013-09-11 08:32:00,60.4,59.3,29.98,East,86,0.1,2.3,96,0.01,OVC,OVC,0.12,49.0,WeatherDisplay:10.37,2013-09-11 14:32:00,
2013-09-11 08:37:00,60.4,59.3,29.98,East,86,1.1,3.4,96,0.01,OVC,OVC,0.12,62.0,WeatherDisplay:10.37,2013-09-11 14:37:00,
2013-09-11 08:42:00,60.5,59.4,29.98,East,86,0.6,1.0,96,0.01,OVC,OVC,0.12,53.0,WeatherDisplay:10.37,2013-09-11 14:42:00,
2013-09-11 08:47:00,60.5,59.4,29.98,East,86,1.3,3.4,96,0.00,OVC,OVC,0.12,42.0,WeatherDisplay:10.37,2013-09-11 14:47:00,
2013-09-11 08:52:00,60.4,59.3,29.98,ESE,118,0.0,0.0,96,0.00,OVC,OVC,0.12,54.0,WeatherDisplay:10.37,2013-09-11 14:52:00,
2013-09-11 08:57:00,60.4,59.3,29.98,ENE,65,1.6,3.4,96,0.00,OVC,OVC,0.12,62.0,WeatherDisplay:10.37,2013-09-11 14:57:00,
2013-09-11 09:02:00,60.4,59.3,29.98,ESE,109,0.0,1.1,96,0.00,OVC,OVC,0.12,74.0,WeatherDisplay:10.37,2013-09-11 15:02:00,
2013-09-11 09:07:00,60.4,59.3,29.98,ESE,107,0.8,3.4,96,0.00,OVC,OVC,0.12,81.0,WeatherDisplay:10.37,2013-09-11 15:07:00,
2013-09-11 09:12:00,60.5,59.4,29.98,ESE,103,0.1,1.1,96,0.01,RA,RA,0.13,90.0,WeatherDisplay:10.37,2013-09-11 15:12:00,
2013-09-11 09:17:00,60.5,59.4,29.98,ESE,104,0.9,2.3,96,0.01,RA,RA,0.13,91.0,WeatherDisplay:10.37,2013-09-11 15:17:00,
2013-09-11 09:22:00,60.7,59.6,29.98,ESE,104,1.3,3.4,96,0.01,OVC,OVC,0.13,84.0,WeatherDisplay:10.37,2013-09-11 15:22:00,
2013-09-11 09:27:00,60.8,59.7,29.98,ESE,104,0.3,2.3,96,0.01,OVC,OVC,0.13,76.0,WeatherDisplay:10.37,2013-09-11 15:27:00,
2013-09-11 09:32:00,60.8,59.7,29.98,ESE,103,0.0,0.0,96,0.02,RA,RA,0.14,84.0,WeatherDisplay:10.37,2013-09-11 15:32:00,
2013-09-11 09:37:00,60.9,59.8,29.98,ESE,104,0.0,1.1,96,0.02,RA,RA,0.14,86.0,WeatherDisplay:10.37,2013-09-11 15:37:00,
2013-09-11 09:42:00,60.9,59.8,29.98,ESE,104,0.1,1.1,96,0.02,OVC,OVC,0.14,86.0,WeatherDisplay:10.37,2013-09-11 15:42:00,
2013-09-11 09:47:00,61.0,59.9,29.98,ESE,103,0.0,0.0,96,0.03,RA,RA,0.15,79.0,WeatherDisplay:10.37,2013-09-11 15:47:00,
2013-09-11 09:52:00,61.0,59.9,29.98,ESE,103,0.1,2.3,96,0.04,RA,RA,0.16,77.0,WeatherDisplay:10.37,2013-09-11 15:52:00,
2013-09-11 09:57:00,61.0,59.9,29.98,ESE,103,1.1,1.1,96,0.05,RA,RA,0.17,83.0,WeatherDisplay:10.37,2013-09-11 15:57:00,
2013-09-11 10:02:00,61.0,59.9,29.98,East,101,1.5,4.0,96,0.06,-RA,-RA,0.18,83.0,WeatherDisplay:10.37,2013-09-11 16:02:00,
2013-09-11 10:07:00,61.0,59.9,29.98,East,101,0.7,2.3,96,0.08,-RA,-RA,0.20,83.0,WeatherDisplay:10.37,2013-09-11 16:07:00,
2013-09-11 10:12:00,61.1,60.0,29.98,East,101,0.3,2.3,96,0.09,-RA,-RA,0.22,81.0,WeatherDisplay:10.37,2013-09-11 16:12:00,
2013-09-11 10:17:00,61.1,60.0,29.98,East,101,0.0,1.1,96,0.12,-RA,-RA,0.25,86.0,WeatherDisplay:10.37,2013-09-11 16:17:00,
2013-09-11 10:22:00,61.2,60.1,29.98,East,101,0.7,2.3,96,0.14,-RA,-RA,0.27,109.0,WeatherDisplay:10.37,2013-09-11 16:22:00,
2013-09-11 10:27:00,61.2,60.1,29.98,East,97,1.5,4.0,96,0.15,-RA,-RA,0.28,128.0,WeatherDisplay:10.37,2013-09-11 16:27:00,
2013-09-11 10:32:00,61.3,60.2,29.98,ESE,102,0.7,3.4,96,0.15,-RA,-RA,0.29,137.0,WeatherDisplay:10.37,2013-09-11 16:32:00,
2013-09-11 10:37:00,61.4,60.2,29.98,East,96,0.5,2.3,96,0.15,-RA,-RA,0.29,111.0,WeatherDisplay:10.37,2013-09-11 16:37:00,
2013-09-11 10:42:00,61.5,60.3,29.97,ESE,110,2.6,3.4,96,0.16,RA,RA,0.31,86.0,WeatherDisplay:10.37,2013-09-11 16:42:00,
2013-09-11 10:47:00,61.3,60.2,29.98,ESE,110,0.8,3.4,96,0.19,RA,RA,0.34,91.0,WeatherDisplay:10.37,2013-09-11 16:47:00,
2013-09-11 10:52:00,61.3,60.2,29.98,ESE,110,0.0,0.0,96,0.19,RA,RA,0.35,137.0,WeatherDisplay:10.37,2013-09-11 16:52:00,
2013-09-11 10:57:00,61.2,60.1,29.98,ESE,110,0.0,1.1,96,0.20,RA,RA,0.37,213.0,WeatherDisplay:10.37,2013-09-11 16:57:00,
2013-09-11 11:02:00,61.4,60.2,29.98,ESE,110,1.2,3.4,96,0.21,RA,RA,0.39,237.0,WeatherDisplay:10.37,2013-09-11 17:02:00,
2013-09-11 11:07:00,61.6,60.4,29.97,ESE,108,0.0,1.1,96,0.21,RA,RA,0.41,186.0,WeatherDisplay:10.37,2013-09-11 17:07:00,
2013-09-11 11:12:00,61.7,60.5,29.97,NNE,33,0.0,0.0,96,0.19,RA,RA,0.41,162.0,WeatherDisplay:10.37,2013-09-11 17:12:00,
2013-09-11 11:17:00,61.9,60.7,29.97,NNE,33,0.3,2.3,96,0.16,OVC,OVC,0.41,84.0,WeatherDisplay:10.37,2013-09-11 17:17:00,
2013-09-11 11:22:00,62.0,60.8,29.97,NE,44,0.1,2.3,96,0.14,OVC,OVC,0.41,160.0,WeatherDisplay:10.37,2013-09-11 17:22:00,
2013-09-11 11:27:00,61.6,60.4,29.97,SE,142,3.5,8.0,96,0.14,RA,RA,0.42,163.0,WeatherDisplay:10.37,2013-09-11 17:27:00,
2013-09-11 11:32:00,60.4,59.0,29.99,SE,142,2.0,4.6,95,0.13,RA,RA,0.42,186.0,WeatherDisplay:10.37,2013-09-11 17:32:00,
2013-09-11 11:37:00,60.0,58.6,29.99,SE,146,2.2,6.9,95,0.14,RA,RA,0.43,204.0,WeatherDisplay:10.37,2013-09-11 17:37:00,
2013-09-11 11:42:00,59.9,58.8,29.98,SSE,148,1.6,4.6,96,0.13,RA,RA,0.43,227.0,WeatherDisplay:10.37,2013-09-11 17:42:00,
2013-09-11 11:47:00,60.2,59.1,29.98,SSE,149,0.0,0.0,96,0.09,OVC,OVC,0.43,262.0,WeatherDisplay:10.37,2013-09-11 17:47:00,
2013-09-11 11:52:00,60.7,59.6,29.98,SSE,149,0.0,0.0,96,0.08,OVC,OVC,0.43,288.0,WeatherDisplay:10.37,2013-09-11 17:52:00,
2013-09-11 11:57:00,61.1,60.0,29.97,SSE,149,0.0,0.0,96,0.06,OVC,OVC,0.43,315.0,WeatherDisplay:10.37,2013-09-11 17:57:00,
2013-09-11 12:02:00,61.5,60.3,29.96,SSE,149,0.0,0.0,96,0.04,BKN,BKN,0.43,339.0,WeatherDisplay:10.37,2013-09-11 18:02:00,
2013-09-11 12:07:00,62.0,60.8,29.95,SSE,149,0.0,0.0,96,0.02,BKN,BKN,0.43,336.0,WeatherDisplay:10.37,2013-09-11 18:07:00,
2013-09-11 12:12:00,62.5,61.3,29.95,SSE,149,0.0,0.0,96,0.03,RA,RA,0.44,330.0,WeatherDisplay:10.37,2013-09-11 18:12:00,
2013-09-11 12:17:00,62.9,61.7,29.95,SSE,149,0.2,1.1,96,0.03,RA,RA,0.44,385.0,WeatherDisplay:10.37,2013-09-11 18:17:00,
2013-09-11 12:22:00,63.2,62.0,29.95,SSE,149,0.0,0.0,96,0.03,BKN,BKN,0.44,366.0,WeatherDisplay:10.37,2013-09-11 18:22:00,
2013-09-11 12:27:00,63.6,62.4,29.94,SSE,149,0.0,0.0,96,0.02,BKN,BKN,0.44,408.0,WeatherDisplay:10.37,2013-09-11 18:27:00,
2013-09-11 12:32:00,63.7,62.5,29.94,SSE,149,0.0,0.0,96,0.02,BKN,BKN,0.44,478.0,WeatherDisplay:10.37,2013-09-11 18:32:00,
2013-09-11 12:37:00,63.9,62.7,29.94,SE,134,1.7,3.4,96,0.01,BKN,BKN,0.44,483.0,WeatherDisplay:10.37,2013-09-11 18:37:00,
2013-09-11 12:42:00,63.9,62.7,29.94,SSE,166,0.3,3.0,96,0.01,BKN,BKN,0.44,510.0,WeatherDisplay:10.37,2013-09-11 18:42:00,
2013-09-11 12:47:00,63.7,62.5,29.94,SSE,165,0.7,3.4,96,0.01,BKN,BKN,0.44,548.0,WeatherDisplay:10.37,2013-09-11 18:47:00,
2013-09-11 12:52:00,63.8,62.6,29.93,SSE,165,0.5,3.4,96,0.01,BKN,BKN,0.44,608.0,WeatherDisplay:10.37,2013-09-11 18:52:00,
2013-09-11 12:57:00,64.2,63.0,29.93,SSE,165,1.0,3.4,96,0.01,BKN,BKN,0.44,664.0,WeatherDisplay:10.37,2013-09-11 18:57:00,
2013-09-11 13:02:00,64.5,63.3,29.93,NNE,24,0.0,0.0,96,0.01,OVC,OVC,0.44,635.0,WeatherDisplay:10.37,2013-09-11 19:02:00,
2013-09-11 13:07:00,65.2,63.7,29.92,NNE,32,1.9,3.4,95,0.01,OVC,OVC,0.44,615.0,WeatherDisplay:10.37,2013-09-11 19:07:00,
2013-09-11 13:12:00,65.8,64.3,29.92,NNE,32,0.0,1.1,95,0.00,OVC,OVC,0.44,566.0,WeatherDisplay:10.37,2013-09-11 19:12:00,
2013-09-11 13:17:00,66.2,64.4,29.91,NNE,31,2.8,4.6,94,0.00,OVC,OVC,0.44,754.0,WeatherDisplay:10.37,2013-09-11 19:17:00,
2013-09-11 13:22:00,66.5,64.1,29.91,NNE,14,2.3,5.8,92,0.00,OVC,OVC,0.44,550.0,WeatherDisplay:10.37,2013-09-11 19:22:00,
2013-09-11 13:27:00,67.1,64.7,29.91,NNW,335,0.3,2.3,92,0.00,OVC,OVC,0.44,547.0,WeatherDisplay:10.37,2013-09-11 19:27:00,
2013-09-11 13:32:00,67.3,64.3,29.91,NNE,25,4.5,5.8,90,0.00,OVC,OVC,0.44,439.0,WeatherDisplay:10.37,2013-09-11 19:32:00,
2013-09-11 13:37:00,67.2,63.8,29.91,North,360,2.6,4.6,89,0.00,OVC,OVC,0.44,406.0,WeatherDisplay:10.37,2013-09-11 19:37:00,
2013-09-11 13:42:00,67.2,63.2,29.92,NE,37,1.0,3.4,87,0.00,OVC,OVC,0.44,399.0,WeatherDisplay:10.37,2013-09-11 19:42:00,
2013-09-11 13:47:00,67.5,63.2,29.90,NNE,20,2.1,3.4,86,0.00,OVC,OVC,0.44,396.0,WeatherDisplay:10.37,2013-09-11 19:47:00,
2013-09-11 13:52:00,67.5,62.5,29.90,North,5,4.3,8.1,84,0.00,OVC,OVC,0.44,287.0,WeatherDisplay:10.37,2013-09-11 19:52:00,
2013-09-11 13:57:00,67.3,62.0,29.91,NE,42,3.6,7.0,83,0.00,OVC,OVC,0.44,241.0,WeatherDisplay:10.37,2013-09-11 19:57:00,
2013-09-11 14:02:00,67.1,61.4,29.91,NNE,20,3.7,5.8,82,0.00,BKN,BKN,0.44,265.0,WeatherDisplay:10.37,2013-09-11 20:02:00,
2013-09-11 14:07:00,67.1,61.1,29.91,North,5,2.4,3.4,81,0.00,BKN,BKN,0.44,265.0,WeatherDisplay:10.37,2013-09-11 20:07:00,
2013-09-11 14:12:00,67.2,61.5,29.91,NNE,19,0.0,0.0,82,0.00,BKN,BKN,0.44,223.0,WeatherDisplay:10.37,2013-09-11 20:12:00,
2013-09-11 14:17:00,67.2,61.2,29.91,NNE,29,3.3,4.6,81,0.00,BKN,BKN,0.44,163.0,WeatherDisplay:10.37,2013-09-11 20:17:00,
2013-09-11 14:22:00,67.2,61.2,29.91,NNE,25,0.5,6.0,81,0.00,BKN,BKN,0.44,144.0,WeatherDisplay:10.37,2013-09-11 20:22:00,
2013-09-11 14:27:00,67.0,61.0,29.91,North,360,1.5,3.4,81,0.00,BKN,BKN,0.44,137.0,WeatherDisplay:10.37,2013-09-11 20:27:00,
2013-09-11 14:32:00,66.9,60.9,29.91,NNW,346,0.7,3.4,81,0.00,BKN,BKN,0.44,137.0,WeatherDisplay:10.37,2013-09-11 20:32:00,
2013-09-11 14:37:00,66.9,60.9,29.91,NNE,18,0.9,3.4,81,0.00,BKN,BKN,0.44,144.0,WeatherDisplay:10.37,2013-09-11 20:37:00,
2013-09-11 14:42:00,66.7,61.0,29.91,NNE,27,0.0,0.0,82,0.00,BKN,BKN,0.44,199.0,WeatherDisplay:10.37,2013-09-11 20:42:00,
2013-09-11 14:47:00,66.5,60.8,29.91,North,355,5.2,9.2,82,0.00,BKN,BKN,0.44,244.0,WeatherDisplay:10.37,2013-09-11 20:47:00,
2013-09-11 14:52:00,66.3,61.3,29.90,North,5,2.6,5.8,84,0.01,RA,RA,0.45,299.0,WeatherDisplay:10.37,2013-09-11 20:52:00,
2013-09-11 14:57:00,66.2,61.6,29.90,NNE,17,2.0,5.8,85,0.01,RA,RA,0.45,332.0,WeatherDisplay:10.37,2013-09-11 20:57:00,
2013-09-11 15:02:00,66.0,61.4,29.90,North,355,2.3,8.0,85,0.01,OVC,OVC,0.45,336.0,WeatherDisplay:10.37,2013-09-11 21:02:00,
2013-09-11 15:07:00,65.7,61.4,29.90,NNE,21,1.5,3.4,86,0.01,OVC,OVC,0.45,320.0,WeatherDisplay:10.37,2013-09-11 21:07:00,
2013-09-11 15:12:00,65.5,61.5,29.90,NNE,27,3.8,5.8,87,0.01,OVC,OVC,0.45,276.0,WeatherDisplay:10.37,2013-09-11 21:12:00,
2013-09-11 15:17:00,65.3,61.3,29.91,NNE,19,1.7,9.2,87,0.01,OVC,OVC,0.45,281.0,WeatherDisplay:10.37,2013-09-11 21:17:00,
2013-09-11 15:22:00,65.2,61.6,29.91,NNE,17,2.1,5.8,88,0.01,OVC,OVC,0.45,264.0,WeatherDisplay:10.37,2013-09-11 21:22:00,
2013-09-11 15:27:00,65.2,61.9,29.91,NNE,32,3.7,8.1,89,0.01,OVC,OVC,0.45,250.0,WeatherDisplay:10.37,2013-09-11 21:27:00,
2013-09-11 15:32:00,65.2,61.9,29.91,NNE,24,1.8,4.6,89,0.01,OVC,OVC,0.45,218.0,WeatherDisplay:10.37,2013-09-11 21:32:00,
2013-09-11 15:37:00,65.0,61.7,29.91,NE,37,1.0,3.4,89,0.01,OVC,OVC,0.45,139.0,WeatherDisplay:10.37,2013-09-11 21:37:00,
2013-09-11 15:42:00,64.8,61.5,29.91,NNE,25,2.9,8.1,89,0.02,RA,RA,0.46,65.0,WeatherDisplay:10.37,2013-09-11 21:42:00,
2013-09-11 15:47:00,64.6,61.6,29.91,North,11,1.3,3.4,90,0.10,RA,RA,0.54,53.0,WeatherDisplay:10.37,2013-09-11 21:47:00,
2013-09-11 15:52:00,64.3,61.0,29.91,North,5,2.5,6.9,89,0.10,RA,RA,0.55,121.0,WeatherDisplay:10.37,2013-09-11 21:52:00,
2013-09-11 15:57:00,63.8,60.8,29.91,NNE,18,4.3,5.8,90,0.10,RA,RA,0.55,141.0,WeatherDisplay:10.37,2013-09-11 21:57:00,
2013-09-11 16:02:00,63.5,60.5,29.91,NNE,29,4.2,5.8,90,0.10,BKN,BKN,0.55,130.0,WeatherDisplay:10.37,2013-09-11 22:02:00,
2013-09-11 16:07:00,63.2,60.5,29.92,NNE,16,3.7,8.1,91,0.10,BKN,BKN,0.55,192.0,WeatherDisplay:10.37,2013-09-11 22:07:00,
2013-09-11 16:12:00,63.1,60.4,29.92,NNE,13,2.2,4.6,91,0.10,BKN,BKN,0.55,262.0,WeatherDisplay:10.37,2013-09-11 22:12:00,
2013-09-11 16:17:00,63.2,60.8,29.92,NNE,22,2.5,4.6,92,0.10,BKN,BKN,0.55,197.0,WeatherDisplay:10.37,2013-09-11 22:17:00,
2013-09-11 16:22:00,63.4,61.0,29.92,NNE,18,1.9,4.6,92,0.10,BKN,BKN,0.55,137.0,WeatherDisplay:10.37,2013-09-11 22:22:00,
2013-09-11 16:27:00,63.4,61.0,29.92,North,360,1.3,3.4,92,0.10,BKN,BKN,0.55,83.0,WeatherDisplay:10.37,2013-09-11 22:27:00,
2013-09-11 16:32:00,63.2,60.8,29.92,NNE,19,1.2,3.4,92,0.10,BKN,BKN,0.55,76.0,WeatherDisplay:10.37,2013-09-11 22:32:00,
2013-09-11 16:37:00,63.1,60.7,29.92,NNE,23,1.7,5.0,92,0.10,BKN,BKN,0.55,51.0,WeatherDisplay:10.37,2013-09-11 22:37:00,
2013-09-11 16:42:00,63.0,60.6,29.92,NNE,24,3.0,6.9,92,0.09,BKN,BKN,0.55,74.0,WeatherDisplay:10.37,2013-09-11 22:42:00,
2013-09-11 16:47:00,62.9,60.5,29.92,NNE,18,0.0,2.3,92,0.01,BKN,BKN,0.55,105.0,WeatherDisplay:10.37,2013-09-11 22:47:00,
2013-09-11 16:52:00,63.0,60.9,29.92,NNE,13,1.7,4.6,93,0.00,BKN,BKN,0.55,91.0,WeatherDisplay:10.37,2013-09-11 22:52:00,
2013-09-11 16:57:00,62.9,60.8,29.92,North,9,2.8,4.6,93,0.00,BKN,BKN,0.55,88.0,WeatherDisplay:10.37,2013-09-11 22:57:00,
2013-09-11 17:02:00,62.9,60.8,29.92,North,360,2.3,6.9,93,0.00,OVC,OVC,0.55,62.0,WeatherDisplay:10.37,2013-09-11 23:02:00,
2013-09-11 17:07:00,62.9,60.8,29.92,NE,34,3.2,6.9,93,0.00,OVC,OVC,0.55,33.0,WeatherDisplay:10.37,2013-09-11 23:07:00,
2013-09-11 17:12:00,62.7,60.6,29.92,NE,37,2.2,4.6,93,0.00,OVC,OVC,0.55,18.0,WeatherDisplay:10.37,2013-09-11 23:12:00,
2013-09-11 17:17:00,62.6,60.5,29.92,East,94,0.5,3.4,93,0.00,OVC,OVC,0.55,12.0,WeatherDisplay:10.37,2013-09-11 23:17:00,
2013-09-11 17:22:00,62.5,60.4,29.92,NE,39,1.6,4.0,93,0.01,RA,RA,0.56,21.0,WeatherDisplay:10.37,2013-09-11 23:22:00,
2013-09-11 17:27:00,62.3,60.2,29.93,NNE,24,0.5,4.0,93,0.03,RA,RA,0.58,32.0,WeatherDisplay:10.37,2013-09-11 23:27:00,
2013-09-11 17:32:00,62.3,60.2,29.92,NNE,28,1.5,3.4,93,0.03,-RA,-RA,0.58,51.0,WeatherDisplay:10.37,2013-09-11 23:32:00,
2013-09-11 17:37:00,62.3,60.2,29.92,NNE,22,2.0,5.8,93,0.03,-RA,-RA,0.58,54.0,WeatherDisplay:10.37,2013-09-11 23:37:00,
2013-09-11 17:42:00,62.3,60.2,29.93,NE,53,0.8,4.0,93,0.03,-RA,-RA,0.58,49.0,WeatherDisplay:10.37,2013-09-11 23:42:00,
2013-09-11 17:47:00,62.2,60.2,29.93,NE,52,0.3,2.3,93,0.03,-RA,-RA,0.58,51.0,WeatherDisplay:10.37,2013-09-11 23:47:00,
2013-09-11 17:52:00,62.2,60.5,29.92,NNE,20,2.3,4.6,94,0.03,-RA,-RA,0.58,35.0,WeatherDisplay:10.37,2013-09-11 23:52:00,
2013-09-11 17:57:00,62.2,60.5,29.92,NNE,20,0.0,3.4,94,0.03,-RA,-RA,0.58,47.0,WeatherDisplay:10.37,2013-09-11 23:57:00,
2013-09-11 18:02:00,62.2,60.5,29.92,NNE,19,0.9,3.0,94,0.03,-RA,-RA,0.58,46.0,WeatherDisplay:10.37,2013-09-12 00:02:00,
2013-09-11 18:07:00,62.2,60.5,29.92,NE,34,3.2,5.8,94,0.03,-RA,-RA,0.58,40.0,WeatherDisplay:10.37,2013-09-12 00:07:00,
2013-09-11 18:12:00,62.2,60.5,29.92,NNE,33,1.4,3.4,94,0.03,-RA,-RA,0.58,21.0,WeatherDisplay:10.37,2013-09-12 00:12:00,
2013-09-11 18:17:00,62.2,60.5,29.92,NE,34,0.0,0.0,94,0.03,-RA,-RA,0.58,14.0,WeatherDisplay:10.37,2013-09-12 00:17:00,
2013-09-11 18:22:00,62.2,60.5,29.92,NE,34,0.2,2.3,94,0.02,-RA,-RA,0.58,18.0,WeatherDisplay:10.37,2013-09-12 00:22:00,
2013-09-11 18:27:00,62.1,60.4,29.93,NE,34,1.0,3.4,94,0.00,-RA,-RA,0.58,28.0,WeatherDisplay:10.37,2013-09-12 00:27:00,
2013-09-11 18:32:00,62.1,60.4,29.93,NE,34,0.0,0.0,94,0.00,-RA,-RA,0.58,18.0,WeatherDisplay:10.37,2013-09-12 00:32:00,
2013-09-11 18:37:00,62.1,60.4,29.93,NE,34,0.4,1.1,94,0.00,-RA,-RA,0.58,14.0,WeatherDisplay:10.37,2013-09-12 00:37:00,
2013-09-11 18:42:00,62.0,60.3,29.93,NE,34,0.0,0.0,94,0.00,-RA,-RA,0.58,14.0,WeatherDisplay:10.37,2013-09-12 00:42:00,
2013-09-11 18:47:00,62.0,60.3,29.93,NE,34,0.0,0.0,94,0.00,-RA,-RA,0.58,11.0,WeatherDisplay:10.37,2013-09-12 00:47:00,
2013-09-11 18:52:00,62.0,60.3,29.93,NE,34,0.7,2.3,94,0.00,OVC,OVC,0.58,7.0,WeatherDisplay:10.37,2013-09-12 00:52:00,
2013-09-11 18:57:00,62.1,60.4,29.93,NE,34,0.0,0.0,94,0.00,OVC,OVC,0.58,0.0,WeatherDisplay:10.37,2013-09-12 00:57:00,
2013-09-11 19:02:00,62.1,60.4,29.93,NE,34,0.0,0.0,94,0.00,OVC,OVC,0.58,0.0,WeatherDisplay:10.37,2013-09-12 01:02:00,
2013-09-11 19:07:00,62.1,60.4,29.93,NE,34,0.0,1.1,94,0.00,OVC,OVC,0.58,0.0,WeatherDisplay:10.37,2013-09-12 01:07:00,
2013-09-11 19:12:00,62.1,60.4,29.93,NE,34,0.0,0.0,94,0.00,OVC,OVC,0.58,0.0,WeatherDisplay:10.37,2013-09-12 01:12:00,
2013-09-11 19:17:00,62.1,60.7,29.93,NNE,33,0.0,0.0,95,0.00,OVC,OVC,0.58,0.0,WeatherDisplay:10.37,2013-09-12 01:17:00,
2013-09-11 19:22:00,62.2,60.8,29.93,NE,34,0.0,0.0,95,0.00,OVC,OVC,0.58,0.0,WeatherDisplay:10.37,2013-09-12 01:22:00,
2013-09-11 19:27:00,62.2,60.8,29.93,NE,34,1.7,2.3,95,0.00,OVC,OVC,0.58,0.0,WeatherDisplay:10.37,2013-09-12 01:27:00,
2013-09-11 19:32:00,62.2,60.8,29.93,NE,34,0.0,0.0,95,0.00,OVC,OVC,0.58,0.0,WeatherDisplay:10.37,2013-09-12 01:32:00,
2013-09-11 19:37:00,62.2,60.8,29.93,NE,34,0.0,0.0,95,0.00,OVC,OVC,0.58,0.0,WeatherDisplay:10.37,2013-09-12 01:37:00,
2013-09-11 19:42:00,62.1,60.7,29.93,NE,34,0.0,0.0,95,0.00,OVC,OVC,0.58,0.0,WeatherDisplay:10.37,2013-09-12 01:42:00,
2013-09-11 19:47:00,62.0,60.6,29.93,ESE,111,1.2,4.6,95,0.00,OVC,OVC,0.58,0.0,WeatherDisplay:10.37,2013-09-12 01:47:00,
2013-09-11 19:52:00,61.8,60.1,29.94,ESE,111,0.3,1.1,94,0.00,OVC,OVC,0.58,0.0,WeatherDisplay:10.37,2013-09-12 01:52:00,
2013-09-11 19:57:00,61.7,60.0,29.94,ESE,111,0.8,2.3,94,0.00,OVC,OVC,0.58,0.0,WeatherDisplay:10.37,2013-09-12 01:57:00,
2013-09-11 20:02:00,61.7,60.3,29.94,ESE,112,0.8,2.3,95,0.00,-RA,-RA,0.58,0.0,WeatherDisplay:10.37,2013-09-12 02:02:00,
2013-09-11 20:07:00,61.6,60.2,29.94,ESE,111,0.4,2.3,95,0.00,-RA,-RA,0.58,0.0,WeatherDisplay:10.37,2013-09-12 02:07:00,
2013-09-11 20:12:00,61.6,60.2,29.94,ESE,110,1.6,4.6,95,0.00,-RA,-RA,0.58,0.0,WeatherDisplay:10.37,2013-09-12 02:12:00,
2013-09-11 20:17:00,61.5,60.1,29.94,ESE,109,0.9,3.4,95,0.00,-RA,-RA,0.58,0.0,WeatherDisplay:10.37,2013-09-12 02:17:00,
2013-09-11 20:22:00,61.5,60.1,29.95,ESE,109,0.0,0.0,95,0.00,-RA,-RA,0.58,0.0,WeatherDisplay:10.37,2013-09-12 02:22:00,
2013-09-11 20:27:00,61.5,60.1,29.96,ESE,109,0.0,1.1,95,0.00,-RA,-RA,0.58,0.0,WeatherDisplay:10.37,2013-09-12 02:27:00,
2013-09-11 20:32:00,61.5,60.1,29.95,ESE,109,1.0,3.4,95,0.00,-RA,-RA,0.58,0.0,WeatherDisplay:10.37,2013-09-12 02:32:00,
2013-09-11 20:37:00,61.5,60.1,29.95,SE,133,1.3,4.6,95,0.00,-RA,-RA,0.58,0.0,WeatherDisplay:10.37,2013-09-12 02:37:00,
2013-09-11 20:42:00,61.5,60.1,29.95,SE,133,0.0,0.0,95,0.00,-RA,-RA,0.58,0.0,WeatherDisplay:10.37,2013-09-12 02:42:00,
2013-09-11 20:47:00,61.6,60.2,29.96,ESE,122,5.6,10.3,95,0.00,-RA,-RA,0.58,0.0,WeatherDisplay:10.37,2013-09-12 02:47:00,
2013-09-11 20:52:00,61.6,60.2,29.96,ESE,108,0.0,0.0,95,0.00,-RA,-RA,0.58,0.0,WeatherDisplay:10.37,2013-09-12 02:52:00,
2013-09-11 20:57:00,61.6,60.2,29.95,ESE,113,0.8,3.0,95,0.00,-RA,-RA,0.58,0.0,WeatherDisplay:10.37,2013-09-12 02:57:00,
2013-09-11 21:02:00,61.6,60.2,29.95,SE,128,0.8,5.8,95,0.00,OVC,OVC,0.58,0.0,WeatherDisplay:10.37,2013-09-12 03:02:00,
2013-09-11 21:07:00,61.6,60.2,29.96,East,101,1.3,3.4,95,0.00,OVC,OVC,0.58,0.0,WeatherDisplay:10.37,2013-09-12 03:07:00,
2013-09-11 21:12:00,61.6,60.2,29.96,ESE,114,2.7,6.9,95,0.00,OVC,OVC,0.58,0.0,WeatherDisplay:10.37,2013-09-12 03:12:00,
2013-09-11 21:17:00,61.6,60.2,29.96,ESE,104,0.6,3.4,95,0.00,OVC,OVC,0.58,0.0,WeatherDisplay:10.37,2013-09-12 03:17:00,
2013-09-11 21:22:00,61.5,60.1,29.95,East,96,1.2,3.4,95,0.00,-RA,-RA,0.58,0.0,WeatherDisplay:10.37,2013-09-12 03:22:00,
2013-09-11 21:27:00,61.6,60.2,29.95,East,82,0.5,2.3,95,0.00,-RA,-RA,0.58,0.0,WeatherDisplay:10.37,2013-09-12 03:27:00,
2013-09-11 21:32:00,61.6,60.2,29.96,SE,132,0.8,3.4,95,0.00,-RA,-RA,0.58,0.0,WeatherDisplay:10.37,2013-09-12 03:32:00,
2013-09-11 21:37:00,61.6,60.2,29.96,SE,132,0.7,2.0,95,0.00,-RA,-RA,0.58,0.0,WeatherDisplay:10.37,2013-09-12 03:37:00,
2013-09-11 21:42:00,61.6,60.2,29.96,ESE,115,0.4,2.0,95,0.00,-RA,-RA,0.58,0.0,WeatherDisplay:10.37,2013-09-12 03:42:00,
2013-09-11 21:47:00,61.6,60.2,29.96,ESE,115,0.4,3.4,95,0.00,-RA,-RA,0.58,0.0,WeatherDisplay:10.37,2013-09-12 03:47:00,
2013-09-11 21:52:00,61.6,60.2,29.96,ESE,117,0.1,2.3,95,0.00,-RA,-RA,0.58,0.0,WeatherDisplay:10.37,2013-09-12 03:52:00,
2013-09-11 21:57:00,61.7,60.3,29.96,ESE,117,0.4,2.0,95,0.00,-RA,-RA,0.58,0.0,WeatherDisplay:10.37,2013-09-12 03:57:00,
2013-09-11 22:01:00,61.7,60.3,29.96,ESE,117,1.0,1.1,95,0.00,-RA,-RA,0.58,0.0,WeatherDisplay:10.37,2013-09-12 04:01:00,
2013-09-11 22:02:00,61.7,60.3,29.96,ESE,117,0.0,0.0,95,0.00,-RA,-RA,0.58,0.0,WeatherDisplay:10.37,2013-09-12 04:02:00,
2013-09-11 22:07:00,61.8,60.4,29.96,ESE,122,1.9,3.4,95,0.00,-RA,-RA,0.58,0.0,WeatherDisplay:10.37,2013-09-12 04:07:00,
2013-09-11 22:12:00,61.8,60.4,29.96,ESE,122,0.7,3.4,95,0.00,-RA,-RA,0.58,0.0,WeatherDisplay:10.37,2013-09-12 04:12:00,
2013-09-11 22:17:00,61.8,60.4,29.96,ESE,122,0.7,1.0,95,0.00,-RA,-RA,0.58,0.0,WeatherDisplay:10.37,2013-09-12 04:17:00,
2013-09-11 22:22:00,61.9,60.5,29.95,ESE,122,0.0,0.0,95,0.00,-RA,-RA,0.58,0.0,WeatherDisplay:10.37,2013-09-12 04:22:00,
2013-09-11 22:27:00,61.9,60.5,29.96,ESE,122,0.0,0.0,95,0.00,-RA,-RA,0.58,0.0,WeatherDisplay:10.37,2013-09-12 04:27:00,
2013-09-11 22:32:00,61.9,60.5,29.96,ESE,122,0.0,0.0,95,0.00,-RA,-RA,0.58,0.0,WeatherDisplay:10.37,2013-09-12 04:32:00,
2013-09-11 22:37:00,62.0,60.6,29.96,ESE,122,0.0,0.0,95,0.00,-RA,-RA,0.58,0.0,WeatherDisplay:10.37,2013-09-12 04:37:00,
2013-09-11 22:42:00,62.0,60.6,29.96,ESE,122,0.0,0.0,95,0.00,OVC,OVC,0.58,0.0,WeatherDisplay:10.37,2013-09-12 04:42:00,
2013-09-11 22:47:00,62.0,60.6,29.96,ESE,122,0.0,0.0,95,0.00,OVC,OVC,0.58,0.0,WeatherDisplay:10.37,2013-09-12 04:47:00,
2013-09-11 22:52:00,62.1,60.7,29.96,ESE,122,0.0,0.0,95,0.00,OVC,OVC,0.58,0.0,WeatherDisplay:10.37,2013-09-12 04:52:00,
2013-09-11 22:57:00,62.1,60.7,29.96,ESE,122,0.0,0.0,95,0.00,OVC,OVC,0.58,0.0,WeatherDisplay:10.37,2013-09-12 04:57:00,
2013-09-11 23:02:00,62.1,60.7,29.96,ESE,122,0.0,0.0,95,0.00,OVC,OVC,0.58,0.0,WeatherDisplay:10.37,2013-09-12 05:02:00,
2013-09-11 23:07:00,62.2,60.8,29.94,ESE,122,0.0,0.0,95,0.00,OVC,OVC,0.58,0.0,WeatherDisplay:10.37,2013-09-12 05:07:00,
2013-09-11 23:12:00,62.2,60.8,29.94,ESE,122,0.0,0.0,95,0.00,OVC,OVC,0.58,0.0,WeatherDisplay:10.37,2013-09-12 05:12:00,
2013-09-11 23:17:00,62.2,60.8,29.94,ESE,122,0.0,0.0,95,0.00,OVC,OVC,0.58,0.0,WeatherDisplay:10.37,2013-09-12 05:17:00,
2013-09-11 23:22:00,62.2,60.8,29.94,ESE,122,0.0,0.0,95,0.00,-RA,-RA,0.58,0.0,WeatherDisplay:10.37,2013-09-12 05:22:00,
2013-09-11 23:27:00,62.1,60.7,29.94,ESE,122,0.0,0.0,95,0.00,-RA,-RA,0.58,0.0,WeatherDisplay:10.37,2013-09-12 05:27:00,
2013-09-11 23:32:00,62.1,60.7,29.94,ESE,122,0.0,0.0,95,0.00,-RA,-RA,0.58,0.0,WeatherDisplay:10.37,2013-09-12 05:32:00,
2013-09-11 23:37:00,62.1,60.7,29.95,ESE,122,0.0,0.0,95,0.00,-RA,-RA,0.58,0.0,WeatherDisplay:10.37,2013-09-12 05:37:00,
2013-09-11 23:42:00,62.1,60.7,29.95,ESE,122,0.0,0.0,95,0.00,-RA,-RA,0.58,0.0,WeatherDisplay:10.37,2013-09-12 05:42:00,
2013-09-11 23:47:00,62.0,60.6,29.95,ESE,122,0.0,0.0,95,0.00,-RA,-RA,0.58,0.0,WeatherDisplay:10.37,2013-09-12 05:47:00,
2013-09-11 23:52:00,62.0,60.6,29.94,ESE,122,0.0,0.0,95,0.00,OVC,OVC,0.58,0.0,WeatherDisplay:10.37,2013-09-12 05:52:00,
2013-09-11 23:57:00,62.0,60.6,29.94,ESE,122,0.0,0.0,95,0.00,OVC,OVC,0.58,0.0,WeatherDisplay:10.37,2013-09-12 05:57:00,